[[{"header":{"parameterUnit":"m.s-1","parameterCategory":1,"la1":30.2991,"la2":30.254,"lo1":-89.0895,"lo2":-89.0444,"dy":0.0017,"dx":0.0017,"nx":28,"ny":28,"refTime":"2025-08-17T21:00:00:Z","depth":0,"parameterNumber":2,"parameterNumberName":"U-component_of_WINDS"},"data":[0,0,0,0,0,0,0,0,0,0,0,0,0,0,0,0,0,0,0,0,0,0,0,0,0,0,0,0,0,0,0,0,0,0,0,0,0,0,0,0,0,0,0,0,0,0,0,0,0,0,0,0,0,0,0,0,0,0,0.2844,0.2845,0,0.2883,0.2883,0.2884,0.2909,0.2909,0.2909,0.2909,0.2945,0.2946,0.2947,0,0,0,0,0,0,0,0,0,0,0,0,0,0.2789,0.279,0.2844,0.2845,0.2845,0.2883,0.2883,0.2884,0.2909,0.2909,0.2909,0.2909,0.2945,0.2946,0.2947,0,0,0,0,0,0,0,0,0,0,0,0,0,0.2819,0.279,0.2844,0.2862,0.2864,0.2883,0.2883,0.2884,0.2909,0.2909,0.2909,0.2909,0.2945,0.2946,0.2947,0.2949,0,0,0.2951,0.2951,0,0,0,0,0,0,0,0,0.2817,0.2821,0.2859,0.2861,0.2863,0.2891,0.2877,0.2906,0.2909,0.2892,0.2909,0.291,0.2927,0.2929,0.2936,0.2951,0.2953,0.2951,0.2951,0.2952,0.2952,0,0,0,0,0,0,0,0.2815,0.2819,0.2859,0.286,0.2862,0.2867,0.2872,0.2883,0.2907,0.2893,0.2895,0.29,0.2928,0.2935,0.2937,0.2953,0.2951,0.2952,0.2952,0.2953,0.2973,0.2972,0,0,0,0,0,0,0.281,0.2817,0.2858,0.2861,0.284,0.2868,0.2873,0.2882,0.2907,0.2911,0.2899,0.2901,0.2933,0.2936,0.2938,0.2943,0.2952,0.2953,0.2954,0.2973,0.2973,0.2972,0,0,0,0,0,0,0.2809,0.2814,0.2857,0.2839,0.2845,0.2869,0.2879,0.2883,0.289,0.2912,0.2916,0.2902,0.2933,0.2937,0.2947,0.2945,0.2954,0.2955,0.2973,0.2973,0.2973,0.2953,0,0,0,0,0,0,0.2807,0.2813,0.2815,0.2839,0.2846,0.2865,0.2878,0.2883,0.2892,0.2894,0.2916,0.2919,0.2933,0.2945,0.2948,0.2947,0.2956,0.2973,0.2973,0.2973,0.2954,0.2952,0.295,0,0,0,0,0,0.2805,0.2807,0.2815,0.282,0.2849,0.2865,0.2869,0.2886,0.2892,0.2893,0.2908,0.2919,0.2945,0.2946,0.2949,0.2948,0.2974,0.2973,0.2973,0.2954,0.2952,0.295,0,0,0,0,0,0,0.278,0.281,0.2819,0.2829,0.2845,0.2869,0.2872,0.2883,0.2896,0.2897,0.2917,0.2922,0.293,0.294,0.2941,0.2952,0.296,0.2961,0.2945,0.2943,0.2942,0.2939,0.2957,0,0,0,0,0,0.2775,0.2787,0.2813,0.2818,0.2826,0.2847,0.2855,0.2867,0.2883,0.289,0.2905,0.2919,0.2931,0.2938,0.2949,0.2956,0.296,0.2957,0.2955,0.2954,0.2953,0.2958,0.2956,0.2971,0.2971,0.2971,0,0,0.2766,0.2784,0.279,0.2814,0.2827,0.2838,0.2853,0.2863,0.2871,0.2891,0.2902,0.2913,0.2931,0.2939,0.2943,0.2948,0.2951,0.2953,0.2952,0.2952,0.2957,0.2956,0.2954,0.2971,0.2971,0.2971,0,0,0.2754,0.277,0.2777,0.279,0.2811,0.2826,0.2827,0.2851,0.286,0.2871,0.2887,0.2896,0.2915,0.2927,0.2936,0.2931,0.2941,0.2934,0.2924,0.2928,0.2927,0.2926,0.2924,0.2923,0.2934,0.2934,0.2934,0,0.274,0.2758,0.2778,0.2788,0.2798,0.2819,0.2826,0.2837,0.286,0.2866,0.2872,0.2897,0.291,0.2922,0.2921,0.2927,0.2929,0.2931,0.2926,0.2925,0.2925,0.2923,0.2922,0.2933,0.2933,0.2933,0.2933,0,0.2738,0.2751,0.2754,0.2777,0.2788,0.2796,0.2817,0.2825,0.2837,0.2851,0.2862,0.2879,0.2895,0.2899,0.2909,0.2912,0.2914,0.2922,0.2931,0.2922,0.2921,0.292,0.2931,0.2931,0.2932,0.2932,0,0,0.271,0.2747,0.2747,0.2759,0.2784,0.2793,0.2802,0.2819,0.2826,0.2841,0.2849,0.2866,0.2874,0.2884,0.2896,0.29,0.2895,0.2908,0.2909,0.2905,0.2898,0.2892,0.2891,0.2902,0.2902,0.2902,0.2897,0,0.2702,0.2721,0.2741,0.2752,0.2764,0.2784,0.2792,0.2808,0.2822,0.2833,0.2847,0.2859,0.2869,0.2875,0.288,0.2894,0.2894,0.2895,0.2909,0.2909,0.2903,0.289,0.2883,0.2877,0.2897,0.2896,0.2896,0,0.2694,0.2711,0.2724,0.275,0.2755,0.2762,0.278,0.279,0.2809,0.2818,0.283,0.2844,0.2854,0.2862,0.2876,0.2877,0.2884,0.2892,0.2892,0.2893,0.2902,0.289,0.2875,0.2874,0.2896,0.2896,0.2896,0,0.2672,0.2697,0.2709,0.2718,0.2748,0.2752,0.2765,0.2784,0.2793,0.2808,0.2814,0.283,0.2838,0.285,0.2867,0.2872,0.288,0.2889,0.2887,0.2887,0.2887,0.2886,0.2872,0.2892,0.2892,0.2892,0.2892,0,0.266,0.2667,0.27,0.2706,0.2715,0.2738,0.2745,0.2759,0.2776,0.2786,0.2804,0.2812,0.2836,0.2847,0.286,0.287,0.2873,0.2881,0.2884,0.2879,0.2878,0.2883,0.2884,0.2892,0.2892,0.2892,0.2892,0,0.2636,0.2658,0.2672,0.27,0.2707,0.2712,0.2736,0.2743,0.2758,0.277,0.2774,0.2798,0.2811,0.2831,0.285,0.2859,0.2867,0.2872,0.2861,0.2863,0.286,0.286,0.2848,0.2847,0.2868,0.2868,0.2868,0,0.2627,0.2633,0.2662,0.2671,0.2683,0.2696,0.2707,0.273,0.2739,0.2762,0.2766,0.2782,0.2796,0.2817,0.2835,0.285,0.2856,0.2851,0.2858,0.2853,0.2855,0.2854,0.2855,0.2848,0.2848,0.2848,0.2848,0,0.2607,0.2619,0.2633,0.2653,0.2665,0.2681,0.2697,0.2702,0.2728,0.2738,0.2754,0.2765,0.2786,0.2801,0.2819,0.283,0.2843,0.2846,0.2846,0.284,0.2833,0.2836,0.2855,0.2845,0.2845,0.2846,0.2846,0.2846,0.259,0.2597,0.2619,0.2635,0.2651,0.2666,0.2675,0.2692,0.2706,0.2726,0.2738,0.2753,0.2772,0.2798,0.2809,0.282,0.2825,0.2826,0.2826,0.2825,0.2823,0.2832,0.2824,0.2824,0.2824,0.2824,0.2824,0,0.2571,0.2587,0.2602,0.2626,0.2639,0.2652,0.2671,0.268,0.2694,0.2711,0.2725,0.2743,0.2758,0.2779,0.2795,0.28,0.2807,0.2804,0.2803,0.2806,0.2818,0.2816,0.2799,0.2799,0.2799,0.2799,0.2799,0.2799,0.2563,0.2576,0.259,0.261,0.2626,0.2642,0.2652,0.2666,0.268,0.27,0.2714,0.2728,0.2746,0.2764,0.2779,0.2784,0.2789,0.2785,0.2792,0.2802,0.2805,0.2807,0.2805,0.2786,0.2786,0.2779,0.2778,0.2778]},{"header":{"parameterUnit":"m.s-1","parameterCategory":1,"la1":30.2991,"la2":30.254,"lo1":-89.0895,"lo2":-89.0444,"dy":0.0017,"dx":0.0017,"nx":28,"ny":28,"refTime":"2025-08-17T21:00:00:Z","depth":0,"parameterNumber":3,"parameterNumberName":"V-component_of_WINDS"},"data":[0,0,0,0,0,0,0,0,0,0,0,0,0,0,0,0,0,0,0,0,0,0,0,0,0,0,0,0,0,0,0,0,0,0,0,0,0,0,0,0,0,0,0,0,0,0,0,0,0,0,0,0,0,0,0,0,0,0,-0.5963,-0.5964,0,-0.6057,-0.6058,-0.6059,-0.6129,-0.6129,-0.613,-0.6131,-0.6227,-0.6229,-0.6231,0,0,0,0,0,0,0,0,0,0,0,0,0,-0.5844,-0.5846,-0.5963,-0.5964,-0.5965,-0.6057,-0.6058,-0.606,-0.6129,-0.6129,-0.613,-0.6131,-0.6226,-0.6228,-0.6231,0,0,0,0,0,0,0,0,0,0,0,0,0,-0.5913,-0.5847,-0.5963,-0.6011,-0.6016,-0.6057,-0.6058,-0.606,-0.6128,-0.6129,-0.613,-0.6131,-0.6225,-0.6228,-0.6231,-0.6232,0,0,-0.624,-0.6242,0,0,0,0,0,0,0,0,-0.5909,-0.5917,-0.6003,-0.6008,-0.6014,-0.6082,-0.6052,-0.6118,-0.6128,-0.6086,-0.6131,-0.6132,-0.6178,-0.6185,-0.6201,-0.6236,-0.624,-0.6241,-0.6242,-0.6244,-0.6245,0,0,0,0,0,0,0,-0.5904,-0.5913,-0.6,-0.6004,-0.601,-0.6028,-0.6039,-0.6065,-0.6126,-0.609,-0.6095,-0.6105,-0.6181,-0.6197,-0.6203,-0.6242,-0.6241,-0.6243,-0.6245,-0.6246,-0.6284,-0.6284,0,0,0,0,0,0,-0.5892,-0.5909,-0.5997,-0.6003,-0.5962,-0.603,-0.6042,-0.6059,-0.6126,-0.6137,-0.6104,-0.6108,-0.6192,-0.62,-0.6207,-0.6213,-0.6244,-0.6246,-0.6248,-0.6285,-0.6284,-0.6283,0,0,0,0,0,0,-0.5889,-0.5899,-0.5994,-0.5958,-0.5971,-0.6031,-0.605,-0.6061,-0.6077,-0.6137,-0.6148,-0.611,-0.6193,-0.6203,-0.6225,-0.6217,-0.6248,-0.6251,-0.6286,-0.6285,-0.6284,-0.6223,0,0,0,0,0,0,-0.5885,-0.5897,-0.5898,-0.5957,-0.5973,-0.601,-0.6049,-0.6062,-0.6082,-0.6088,-0.6145,-0.6155,-0.6194,-0.6221,-0.6228,-0.6221,-0.6253,-0.6287,-0.6286,-0.6284,-0.6226,-0.622,-0.6215,0,0,0,0,0,-0.5881,-0.5876,-0.5897,-0.5907,-0.5974,-0.6009,-0.6018,-0.6063,-0.6081,-0.6082,-0.6121,-0.6153,-0.6217,-0.6222,-0.6232,-0.6225,-0.6288,-0.6286,-0.6284,-0.6229,-0.6221,-0.6215,0,0,0,0,0,0,-0.5813,-0.5885,-0.5909,-0.5924,-0.596,-0.6021,-0.6023,-0.6054,-0.6086,-0.609,-0.6145,-0.6157,-0.6174,-0.6203,-0.6207,-0.6231,-0.6257,-0.6257,-0.6211,-0.6204,-0.6199,-0.6191,-0.6255,0,0,0,0,0,-0.5801,-0.5823,-0.5884,-0.5891,-0.5908,-0.5962,-0.5979,-0.6012,-0.6051,-0.6067,-0.6107,-0.6144,-0.6173,-0.6191,-0.622,-0.6231,-0.6245,-0.6232,-0.6226,-0.6221,-0.622,-0.6229,-0.6224,-0.6278,-0.6278,-0.6278,0,0,-0.5774,-0.5815,-0.5826,-0.5879,-0.5911,-0.5933,-0.5975,-0.5996,-0.6013,-0.607,-0.6094,-0.6125,-0.6171,-0.6187,-0.6197,-0.6212,-0.6209,-0.6219,-0.6215,-0.6216,-0.6227,-0.6222,-0.6217,-0.6276,-0.6277,-0.6277,0,0,-0.5736,-0.577,-0.578,-0.5811,-0.5859,-0.5896,-0.5898,-0.5955,-0.5978,-0.6003,-0.6047,-0.6068,-0.6116,-0.6147,-0.6169,-0.6146,-0.6177,-0.6154,-0.6124,-0.6132,-0.6128,-0.6124,-0.6116,-0.6113,-0.6153,-0.6153,-0.6153,0,-0.5696,-0.5731,-0.5781,-0.58,-0.5822,-0.5876,-0.5887,-0.5916,-0.597,-0.5985,-0.6001,-0.6063,-0.6098,-0.6123,-0.6118,-0.6134,-0.6139,-0.6147,-0.6125,-0.6122,-0.6119,-0.6112,-0.6109,-0.615,-0.615,-0.6151,-0.6151,0,-0.568,-0.5703,-0.5706,-0.5758,-0.5781,-0.5796,-0.5849,-0.5867,-0.5898,-0.5933,-0.5959,-0.6002,-0.6042,-0.6051,-0.6081,-0.6082,-0.6089,-0.6114,-0.6141,-0.611,-0.6104,-0.6102,-0.6146,-0.6147,-0.6148,-0.6148,0,0,-0.5599,-0.5681,-0.5681,-0.5706,-0.5765,-0.5784,-0.5803,-0.5842,-0.5856,-0.5893,-0.591,-0.5951,-0.5975,-0.6,-0.6034,-0.6042,-0.6021,-0.6066,-0.6068,-0.6056,-0.6025,-0.6005,-0.6,-0.6043,-0.6043,-0.6042,-0.6021,0,-0.557,-0.5605,-0.5652,-0.5671,-0.5694,-0.5747,-0.5764,-0.5801,-0.5835,-0.586,-0.5898,-0.5926,-0.5956,-0.5971,-0.5981,-0.6021,-0.6015,-0.6024,-0.6059,-0.606,-0.6045,-0.5998,-0.5976,-0.5953,-0.6019,-0.6018,-0.6018,0,-0.5539,-0.5574,-0.5596,-0.5654,-0.5666,-0.5679,-0.572,-0.5743,-0.5788,-0.5813,-0.5841,-0.5879,-0.5902,-0.5928,-0.5961,-0.5965,-0.5983,-0.6005,-0.6006,-0.6009,-0.6036,-0.5999,-0.5947,-0.5943,-0.6015,-0.6015,-0.6016,0,-0.5478,-0.5531,-0.5551,-0.5571,-0.5639,-0.5648,-0.5676,-0.5722,-0.5744,-0.578,-0.5795,-0.5833,-0.5854,-0.5883,-0.5931,-0.5945,-0.5958,-0.5988,-0.5979,-0.5978,-0.5978,-0.5977,-0.5927,-0.5991,-0.5991,-0.5991,-0.5992,0,-0.5439,-0.545,-0.5525,-0.5537,-0.5551,-0.5606,-0.5619,-0.5653,-0.5694,-0.5714,-0.5763,-0.5781,-0.5844,-0.587,-0.5907,-0.5929,-0.5938,-0.5959,-0.5968,-0.5954,-0.5951,-0.5965,-0.5967,-0.5991,-0.5991,-0.5991,-0.5991,0,-0.5372,-0.5422,-0.5448,-0.5511,-0.5528,-0.5535,-0.559,-0.5604,-0.5643,-0.5668,-0.5677,-0.5737,-0.577,-0.5821,-0.5869,-0.5895,-0.591,-0.5926,-0.5894,-0.59,-0.5889,-0.5889,-0.5845,-0.5842,-0.5908,-0.5908,-0.5907,0,-0.5343,-0.5353,-0.5418,-0.5436,-0.5463,-0.549,-0.5513,-0.5568,-0.559,-0.5643,-0.5651,-0.5688,-0.5721,-0.5772,-0.5819,-0.5857,-0.5874,-0.5857,-0.588,-0.5866,-0.5874,-0.5872,-0.5874,-0.585,-0.5849,-0.5848,-0.5848,0,-0.5287,-0.5312,-0.5342,-0.5382,-0.5408,-0.5442,-0.5478,-0.549,-0.5553,-0.5575,-0.561,-0.5635,-0.5686,-0.5722,-0.5767,-0.5798,-0.5833,-0.5841,-0.5841,-0.5825,-0.5806,-0.5816,-0.5878,-0.5841,-0.5841,-0.5842,-0.5842,-0.5843,-0.5238,-0.5249,-0.5297,-0.533,-0.5364,-0.5397,-0.5414,-0.5455,-0.5485,-0.553,-0.5562,-0.5595,-0.5642,-0.5706,-0.5735,-0.5763,-0.5778,-0.5778,-0.5778,-0.5777,-0.5771,-0.5803,-0.5771,-0.5771,-0.5772,-0.5772,-0.5772,0,-0.5183,-0.5217,-0.5247,-0.5297,-0.5323,-0.5356,-0.5399,-0.5419,-0.5447,-0.5488,-0.552,-0.5561,-0.5597,-0.5649,-0.5689,-0.5701,-0.5719,-0.571,-0.5709,-0.5716,-0.5755,-0.5751,-0.5695,-0.5695,-0.5695,-0.5695,-0.5695,-0.5695,-0.5158,-0.5179,-0.5211,-0.525,-0.5285,-0.5318,-0.5339,-0.5371,-0.5404,-0.5448,-0.5478,-0.5512,-0.5558,-0.5603,-0.5638,-0.5653,-0.5665,-0.5651,-0.567,-0.5706,-0.5713,-0.5719,-0.5715,-0.5653,-0.5653,-0.5628,-0.5628,-0.5628]}]]